Weather History for Lovelock, NV

Change the Weather History Date:

Wednesday, December 12, 2012

  Actual Average Record
Temperature  
Mean Temperature 35 °F -  
Max Temperature 46 °F 42 °F 60 °F (1950)
Min Temperature 24 °F 16 °F -7 °F (1972)
Degree Days  
Heating Degree Days 30    
Moisture  
Dew Point 29 °F    
Average Humidity 77    
Maximum Humidity 100    
Minimum Humidity 39    
Precipitation  
Precipitation 0.02 in - - ()
Sea Level Pressure  
Sea Level Pressure 29.75 in    
Wind  
Wind Speed 9 mph (East)    
Max Wind Speed 17 mph    
Max Gust Speed -    
Visibility 10 miles    
Events Rain    
Averages and records for this station are not official NWS values.
T = Trace of Precipitation, MM = Missing Value Source: NWS Daily Summary

Daily Weather History Graph

Daily Weather History Graph

Search for Another Location

Airport:

Trip Planner

Search our weather history database for the weather conditions in past years. The results will help you decide how hot, cold, wet, or windy it might be!

Date:

Astronomy

Dec. 12, 2012 Rise Set
Actual Time 7:07 AM PST 4:29 PM PST
Civil Twilight 6:36 AM PST 4:59 PM PST
Nautical Twilight 6:02 AM PST 5:33 PM PST
Astronomical Twilight 5:29 AM PST 6:06 PM PST
Moon 6:17 AM PST (12/12) 4:11 PM PST (12/12)
Length of Visible Light 10h 22m
Length of Day
9h 21m
Waning Crescent, 0% of the Moon is Illuminated
Dec 12
Waning Crescent
Dec 13
New
Dec 19
First Quarter
Dec 28
Full
Jan 4
Last Quarter

Hourly Weather History & Observations

Time (PST) Temp. Windchill Dew Point Humidity Pressure Visibility Wind Dir Wind Speed Gust Speed Precip Events Conditions
12:53 AM 46.0 °F 39.0 °F 21.9 °F 39% 29.66 in 10.0 mi West 17.3 mph - N/A   Overcast
1:53 AM 43.0 °F 36.4 °F 26.1 °F 51% 29.68 in 10.0 mi WSW 12.7 mph - N/A   Mostly Cloudy
2:53 AM 41.0 °F 34.7 °F 26.1 °F 55% 29.68 in 10.0 mi WSW 10.4 mph - N/A   Clear
3:53 AM 39.0 °F 30.6 °F 28.0 °F 65% 29.69 in 10.0 mi WSW 15.0 mph - N/A   Clear
4:53 AM 35.1 °F 31.0 °F 26.1 °F 70% 29.72 in 10.0 mi West 4.6 mph - N/A   Clear
5:53 AM 28.0 °F 21.7 °F 23.0 °F 81% 29.75 in 10.0 mi ESE 5.8 mph - N/A   Clear
6:53 AM 24.1 °F 15.2 °F 19.0 °F 81% 29.77 in 10.0 mi NNW 8.1 mph - N/A   Clear
7:53 AM 25.0 °F 17.1 °F 19.9 °F 81% 29.78 in 10.0 mi NE 6.9 mph - N/A   Partly Cloudy
8:53 AM 37.9 °F 34.4 °F 28.0 °F 68% 29.76 in 10.0 mi NE 4.6 mph - N/A   Clear
9:53 AM 43.0 °F 39.5 °F 30.0 °F 60% 29.74 in 10.0 mi East 5.8 mph - N/A   Scattered Clouds
10:53 AM 45.0 °F 40.6 °F 30.0 °F 56% 29.73 in 10.0 mi SE 8.1 mph - N/A   Partly Cloudy
11:53 AM 45.0 °F 43.5 °F 28.0 °F 52% 29.71 in 10.0 mi ENE 3.5 mph - N/A   Overcast
12:53 PM 44.1 °F 38.6 °F 28.9 °F 55% 29.71 in 10.0 mi SE 10.4 mph - 0.00 in Rain Light Rain
1:53 PM 45.0 °F 41.2 °F 28.9 °F 53% 29.69 in 10.0 mi East 6.9 mph - 0.00 in   Partly Cloudy
2:53 PM 44.1 °F 40.1 °F 28.0 °F 53% 29.69 in 10.0 mi ENE 6.9 mph - N/A   Mostly Cloudy
3:53 PM 43.0 °F 41.3 °F 28.9 °F 58% 29.71 in 10.0 mi SSE 3.5 mph - 0.00 in   Overcast
4:53 PM 39.9 °F 35.8 °F 30.9 °F 70% 29.74 in 10.0 mi WSW 5.8 mph - 0.00 in   Overcast
5:53 PM 39.0 °F 34.0 °F 32.0 °F 76% 29.77 in 10.0 mi West 6.9 mph - 0.00 in Rain Light Rain
6:11 PM 39.0 °F 33.4 °F 32.0 °F 76% 29.73 in 10.0 mi NW 8.1 mph - 0.00 in Rain Light Rain
6:53 PM 35.1 °F 32.2 °F 33.1 °F 92% 29.80 in 7.0 mi ENE 3.5 mph - 0.01 in Rain Light Rain
7:21 PM 35.1 °F 30.1 °F 33.1 °F 92% 29.75 in 10.0 mi ESE 5.8 mph - 0.01 in Rain Light Rain
7:53 PM 35.1 °F 32.2 °F 33.1 °F 92% 29.81 in 10.0 mi ENE 3.5 mph - 0.01 in Rain Light Rain
8:08 PM 34.0 °F 28.8 °F 33.1 °F 96% 29.75 in 10.0 mi NE 5.8 mph - 0.00 in Rain Light Rain
8:14 PM 34.0 °F 27.2 °F 33.1 °F 96% 29.75 in 10.0 mi NE 8.1 mph - 0.00 in Rain Light Rain
8:38 PM 33.1 °F 28.7 °F 33.1 °F 100% 29.76 in 10.0 mi ENE 4.6 mph - 0.00 in   Overcast
8:53 PM 34.0 °F 31.0 °F 33.1 °F 96% 29.81 in 10.0 mi East 3.5 mph - 0.00 in   Overcast
9:22 PM 33.1 °F 27.7 °F 32.0 °F 96% 29.76 in 10.0 mi NNE 5.8 mph - 0.00 in Rain Light Rain
9:53 PM 33.1 °F - 32.0 °F 96% 29.80 in 10.0 mi Calm Calm - 0.00 in   Overcast
10:13 PM 33.1 °F 28.7 °F 30.9 °F 92% 29.78 in 10.0 mi West 4.6 mph - N/A   Overcast
10:53 PM 34.0 °F - 32.0 °F 92% 29.79 in 10.0 mi Calm Calm - 0.00 in   Overcast
11:04 PM 33.1 °F 27.7 °F 32.0 °F 96% 29.78 in 10.0 mi SE 5.8 mph - N/A   Overcast
11:15 PM 33.1 °F 27.7 °F 33.1 °F 100% 29.78 in 10.0 mi SSE 5.8 mph - N/A   Overcast
11:53 PM 33.1 °F - 33.1 °F 100% 29.81 in 10.0 mi Calm Calm - N/A   Overcast